Regional Weather Roundup
Issued by NWS Green Bay, WI

Home | Current Version | Previous Version | Graphics & Text | Print | Product List | Glossary Off
Versions: 1 2 3 4 5 6 7 8 9 10 11 12 13 14 15 16 17 18 19 20 21 22 23 24 25 26 27 28 29 30 31 32 33 34 35 36 37 38 39 40 41 42 43 44 45 46 47 48 49 50

000
ASUS43 KGRB 231259
RWRGRB

NORTH-CENTRAL AND NORTHEAST WISCONSIN REGIONAL WEATHER ROUNDUP
NATIONAL WEATHER SERVICE GREEN BAY WI
800 AM CDT THU OCT 23 2014

WIZ005-009-010>012-018-019-231400-
NORTH CENTRAL WISCONSIN

CITY           SKY/WX    TMP DP  RH WIND       PRES   REMARKS
IRONWOOD       CLOUDY    46  39  76 S5        29.99S
MANITOWISH WTR NOT AVBL
ARBOR VITAE    NOT AVBL
EAGLE RIVER    NOT AVBL
LAND O LAKES   NOT AVBL
RHINELANDER    CLOUDY    42  40  92 S6        30.07F
PHILLIPS       NOT AVBL
ANTIGO         NOT AVBL
TOMAHAWK       NOT AVBL
MERRILL        NOT AVBL
$$

WIZ013-073-231400-
NORTHEAST WISCONSIN

CITY           SKY/WX    TMP DP  RH WIND       PRES   REMARKS
IRON MOUNTAIN  MOCLDY    37  35  92 SE8       30.11F FOG
MARINETTE      CLEAR     32  30  93 CALM      30.15F
$$

WIZ017-030-035>037-045-231400-
CENTRAL WISCONSIN

CITY           SKY/WX    TMP DP  RH WIND       PRES   REMARKS
MEDFORD        NOT AVBL
WAUSAU         LGT RAIN  42  39  89 SE8       30.09S
MOSINEE        CLOUDY    41  41 100 S7        30.10F
MARSHFIELD     CLOUDY    44  40  85 S7        30.07F
WISC RAPIDS    CLOUDY    42  39  89 S5        30.11F
STEVENS POINT  NOT AVBL
WAUPACA        NOT AVBL
SHAWANO        NOT AVBL
CLINTONVILLE   NOT AVBL
$$

WIZ038-039-048-051-231400-
FOX VALLEY

CITY           SKY/WX    TMP DP  RH WIND       PRES   REMARKS
NWS GREEN BAY  CLEAR     39  35  86 S7        30.16F
APPLETON       PTCLDY    39  36  87 S8        30.16S
OSHKOSH        PTCLDY    38  35  89 S10       30.15F
FOND DU LAC    PTCLDY    38  34  85 S9        30.16F
$$

WIZ022-050-052-231400-
EAST CENTRAL WISCONSIN

CITY           SKY/WX    TMP DP  RH WIND       PRES   REMARKS
STURGEON BAY   CLEAR     41  37  87 S8        30.18S
MANITOWOC      NOT AVBL
SHEBOYGAN      CLEAR     36  35  96 SW3       30.19S FOG
$$

LMZ563-521-522-541>543-231400-
LAKESHORE

STATION/POSITION TIME  TEMP    WIND        PRES    VSBY  WAVE
                       AIR SEA DIR/SP/G                  HT/PER
                 (UTC) (F)     (DEG/KT/KT) (MB)    (MI)  (FT/S)
SHEBOYGAN LKSHOR 1200   42 50  210/  8/  9 1023.2F
KEWAUNEE LKSHORE 1200   44     190/  7/  8 1021.0F
TWO RIVERS CG    1200   45                 1022.6      6   2
NORTHPORT PIER   1200   43     160/  2/  4 1021.7F
N MID LAKE BUOY  1200   48 51  210/ 14/ 17 1022.5F         3/ 4
STURGEON BAY CG  1200   42 48  220/  4     1031.0   3 1/2  1
CHAMBERS ISLAND  1200   47     170/  6/ 12 1021.7F
MENOMINEE LKSHOR 1200   45     190/  7/ 10 1021.8F
$$



USA.gov is the U.S. government's official web portal to all federal, state and local government web resources and services.